Location: Valseca
(40.9993°N, 4.1751°W)
Time: 02:05:54
(UTC+00:00)

Daily predictions for brighter satellites

Satellite Brightness Start Highest point End
(mag) Time Altitude Azimuth Time Altitude Azimuth Time Altitude Azimuth
USA 267 3.8 03:30:36 10° NE 03:35:57 47° N 03:35:57 47° N
Cosmos 2344 3.3 03:46:42 86° WSW 03:46:53 88° NW 03:54:39 10° NE
Cosmos 2251 Rocket 4.1 03:53:53 55° E 03:53:53 55° E 03:58:41 10° NNE
CENTAUR R/B 3.9 03:45:45 10° NNW 03:53:40 51° NE 04:02:16 10° ESE
Cosmos 1386 Rocket 4.5 03:47:39 10° N 03:53:42 79° NNE 03:53:42 79° NNE
ISS -0.5 04:00:40 13° NE 04:00:40 13° NE 04:01:26 10° NE
H-2A R/B 4.5 03:52:49 42° SW 03:59:43 56° S 04:06:55 10° ESE
Cosmos 2360 Rocket 3.7 04:04:23 25° SSE 04:04:23 25° SSE 04:06:36 10° SSE
ALOS 3.7 04:00:44 10° NNE 04:05:00 34° E 04:07:02 24° SE
PAYLOAD A 4.2 04:00:01 10° NNE 04:05:04 76° ENE 04:05:04 76° ENE
USA 234 3.1 04:03:03 10° SE 04:09:36 88° SW 04:11:34 49° NW
CZ-4C R/B 2.7 04:10:13 42° SE 04:10:53 45° ESE 04:16:08 10° NE
Cosmos 883 Rocket 4.4 04:11:11 51° S 04:12:50 82° E 04:18:59 10° N
PSLV R/B 4.0 04:13:20 10° NNE 04:17:21 62° ENE 04:17:21 62° ENE
NOSS 3-4 (A) 4.0 04:16:30 32° S 04:18:48 49° ESE 04:24:40 10° NE
NOSS 3-4 (C) 4.1 04:16:34 31° S 04:18:55 48° ESE 04:24:46 10° NE
Lacrosse 5 2.2 04:19:24 50° N 04:20:29 63° NE 04:25:30 10° ESE
NOSS 3-2 (C) 4.4 04:17:10 10° NNW 04:24:47 66° NE 04:33:20 10° SE
GPS 2-04 Rocket1 4.4 04:26:32 24° SE 04:26:32 24° SE 04:28:27 10° ESE
Cosmos 2333 Rocket 2.6 04:24:05 10° NNW 04:29:50 66° ENE 04:35:33 10° SSE
ATLAS 2AS CENTAUR R/B 3.8 04:26:23 10° S 04:33:51 49° ESE 04:41:19 10° NE
Cosmos 1484 Rocket 3.4 04:30:58 10° NNE 04:34:35 51° E 04:35:27 40° SE
Delta 2 Rocket 4.3 04:35:04 42° S 04:35:04 42° S 04:39:31 10° ESE
Cosmos 1805 Rocket 3.5 04:30:26 10° N 04:34:55 83° E 04:39:22 10° S
Landsat 5 3.5 04:31:30 10° SSE 04:35:17 66° ENE 04:39:10 10° N
Cosmos 2315 Rocket 3.8 04:34:41 27° SSW 04:38:13 78° W 04:44:26 10° N
CZ-2C R/B 2.7 04:37:32 10° N 04:41:25 45° NW 04:41:25 45° NW
Cosmos 2219 Rocket 2.4 04:38:48 10° NNW 04:44:29 74° ENE 04:50:09 10° SSE
Cosmos 1606 4.1 04:47:57 26° NNW 04:47:57 26° NNW 04:49:57 10° N
Cosmos 1140 Rocket 4.2 04:42:26 10° S 04:47:29 54° ESE 04:52:32 10° NNE
CBERS 1 LM4 rocket 4.4 04:45:02 10° NNE 04:49:48 76° ESE 04:54:26 10° S
Sich 1 2.9 04:47:09 10° N 04:51:34 86° W 04:55:56 10° S
METEOR-M 4.1 04:50:30 10° NNE 04:55:52 84° ESE 05:01:13 10° SSW
Cosmos 1666 Rocket 3.9 04:54:21 10° N 04:58:43 68° E 05:03:06 10° SSE
MOS 1 Rocket 4.5 04:55:31 10° SE 04:59:39 42° ENE 05:03:59 10° N
SeaSat 1 3.8 04:55:52 10° SE 05:00:27 41° ENE 05:05:04 10° NNW
BREEZE M DEB (TANK) 3.7 04:59:34 19° NNW 05:01:01 29° NNE 05:06:16 10° E
COSMOS 2428 2.7 04:55:25 10° NNW 05:01:10 84° ENE 05:06:53 10° SSE
ATLAS 5 CENTAUR R/B 1.2 05:00:50 47° SW 05:01:54 77° NW 05:06:13 10° NNE
BREEZE-M DEB (TANK) 4.3 05:00:37 24° NW 05:01:55 28° NNW 05:04:31 10° NE
USA 238 DEB 3.9 04:57:44 10° NW 05:04:56 62° WSW 05:12:23 10° SSE
USA 238 3.9 04:57:50 10° NW 05:05:03 62° WSW 05:12:30 10° SSE
BREEZE-M DEB (TANK) 3.4 05:08:11 30° SSW 05:08:11 30° SSW 05:11:28 10° SSE
ATLAS 3B R/B 4.4 05:02:12 10° NNW 05:08:25 33° NE 05:14:51 10° ESE
CZ-4B R/B 3.9 05:06:45 10° NNE 05:10:24 67° E 05:14:00 10° S
ADEOS 3.7 05:05:55 10° NNE 05:11:10 77° ESE 05:16:23 10° S
Cosmos 1602 4.0 05:08:31 10° N 05:12:26 69° E 05:16:18 10° SSE
H-2A R/B 1.9 05:12:40 10° S 05:16:53 67° WSW 05:21:02 10° NNW
FENGYUN 3A 3.9 05:11:46 10° N 05:16:58 47° WNW 05:21:40 12° SW
Cosmos 1151 Rocket 2.9 05:13:37 10° S 05:17:56 79° W 05:22:14 10° N
Cosmos 909 Rocket 4.3 05:14:58 22° WSW 05:19:04 49° NW 05:25:09 10° NNE
Cosmos 2219 4.3 05:14:11 10° S 05:19:33 45° ESE 05:24:54 10° NE
Meteor 1-25 Rocket 4.1 05:14:32 10° NNW 05:20:05 70° W 05:25:35 10° S
Cosmos 2322 4.0 05:16:10 10° NW 05:21:30 43° WSW 05:26:48 10° S
NOSS 0 Rocket 4.1 05:18:49 10° NNW 05:25:01 76° ENE 05:31:12 10° SSE
Cosmos 2184 Rocket 4.0 05:20:16 10° N 05:26:38 86° W 05:33:01 10° S
SKYMED 2 3.7 05:24:09 10° SSE 05:28:29 77° ENE 05:32:50 10° N
CZ-2C R/B 4.1 05:27:34 10° S 05:29:04 12° SSE 05:30:37 10° SE
Cosmos 1633 Rocket 3.0 05:25:27 10° NNW 05:29:49 66° W 05:34:07 10° S
Cosmos 1242 Rocket 3.7 05:29:53 10° SSE 05:33:09 43° E 05:36:29 10° NNE
H-2A R/B 3.5 05:31:43 10° NNE 05:35:34 58° E 05:39:23 10° S
Cosmos 1933 4.2 05:33:59 17° WSW 05:36:14 28° WNW 05:39:45 10° NNW
ISS -3.0 05:33:39 12° NW 05:36:37 51° NNE 05:39:54 10° ESE
Milstar 3 Cent rocket 3.6 05:33:46 12° SW 05:36:40 18° S 05:39:55 10° SE
Cosmos 1812 3.4 05:34:34 10° S 05:38:20 58° E 05:42:07 10° NNE
OAO 3 Rocket 4.0 05:37:56 16° WSW 05:41:18 38° S 05:45:45 10° ESE
ALOS 3.4 05:38:28 10° NNW 05:42:13 24° WNW 05:45:33 12° WSW
CENTAUR R/B 3.5 05:36:38 10° NW 05:44:32 47° WSW 05:52:53 10° S
CSL-04 DEB 4.2 05:40:42 10° S 05:44:39 73° WSW 05:48:35 10° NNW
Cosmos 1954 Rocket 4.0 05:40:52 10° SSW 05:46:08 83° WNW 05:51:25 10° NNE
RESURS DK-1 2.7 05:42:30 10° SSW 05:46:35 69° ESE 05:50:42 10° NNE
Meteor 1-31 Rocket 3.2 05:43:28 10° N 05:47:06 40° WNW 05:50:41 10° SW
Meteor 1-14 Rocket 4.2 05:42:08 10° N 05:47:50 83° W 05:53:38 10° S
USA 276 4.3 05:48:20 10° NW 05:50:35 17° N 05:52:49 10° NE
Cosmos 407 Rocket 4.1 05:47:26 10° SW 05:52:06 34° WNW 05:56:46 10° N
Cosmos 2237 Rocket 2.4 05:46:38 10° NNW 05:52:21 81° ENE 05:57:59 10° SSE
USA 234 4.4 05:48:15 10° S 05:53:07 22° WSW 05:58:01 10° WNW
Timation 2 Rocket 4.3 05:50:06 10° SSW 05:56:59 87° ESE 06:03:47 10° NNE
PSLV R/B 4.4 05:54:43 10° SSE 05:58:52 68° ENE 06:03:01 10° N
CZ-4C R/B 3.1 05:55:25 11° W 05:59:35 29° NW 06:04:42 10° NNE
Meteor 2-6 Rocket 4.4 05:54:18 10° S 06:00:15 88° WNW 06:06:08 10° N
Cosmos 1328 Rocket 4.2 05:56:34 10° SW 06:00:24 31° WNW 06:04:17 10° NNW
Meteor 1-5 Rocket 4.5 05:54:44 10° N 06:00:41 85° E 06:06:39 10° S
Cosmos 1515 Rocket 3.6 05:58:19 10° SSW 06:02:34 54° W 06:06:52 10° N
Lacrosse 5 3.1 05:59:13 10° WNW 06:03:03 22° WSW 06:06:52 10° S
Nadezhda 1 Rocket 4.0 05:57:20 10° SSW 06:03:20 59° W 06:09:30 10° N
GPS 2-04 Rocket1 3.8 06:00:48 10° WSW 06:04:03 29° S 06:07:26 10° SE
Cosmos 1689 Rocket 2.7 06:04:56 10° SSE 06:07:41 56° ENE 06:10:29 10° N
Meteor PRIRODA 3.8 06:04:04 10° N 06:07:43 53° WNW 06:11:20 10° SSW
Cosmos 2227 Rocket 2.2 06:02:32 10° SSW 06:08:13 86° WNW 06:13:56 10° NNE
Cosmos 1437 Rocket 4.1 06:05:24 10° WSW 06:08:33 21° WNW 06:11:41 10° NNW
Cosmos 1666 3.0 06:05:50 10° N 06:09:40 74° E 06:13:29 10° SSE
NOSS 3-4 (A) 4.3 06:04:40 10° WSW 06:09:53 32° NW 06:15:28 10° NNE
NOSS 3-4 (C) 4.2 06:04:45 10° WSW 06:09:59 32° NW 06:15:34 10° NNE
Cosmos 2341 Rocket 4.3 06:04:42 10° N 06:10:55 74° E 06:17:08 10° SSE
Cosmos 676 Rocket 4.2 06:05:46 10° SW 06:10:56 51° WNW 06:16:05 10° N
Lacrosse 5 rocket 4.4 06:08:23 10° SSE 06:11:05 16° ESE 06:13:51 10° E
CZ-4B R/B 2.0 06:08:55 10° SSW 06:11:40 29° W 06:14:23 10° NW
SJ-7 4.3 06:09:03 10° N 06:13:04 80° WNW 06:17:07 10° SSW
CZ-4B R/B 3.4 06:09:06 10° N 06:13:28 49° WNW 06:17:47 10° SSW
Cosmos 2333 Rocket 3.6 06:09:49 10° WNW 06:13:29 17° W 06:17:08 10° SW
Cosmos 1470 Rocket 4.1 06:10:31 10° NNW 06:14:31 36° W 06:18:27 10° SSW
Meteor 1-10 Rocket 4.4 06:09:22 10° S 06:15:17 85° W 06:21:11 10° N
SL-16 R/B 3.5 06:09:57 10° NNW 06:15:25 45° ENE 06:20:51 10° SE
CZ-3 R/B 3.3 06:09:22 10° WSW 06:22:54 33° S 06:27:56 10° SE
